[[{"header":{"parameterUnit":"m.s-1","parameterCategory":1,"la1":30.2991,"la2":30.254,"lo1":-89.0895,"lo2":-89.0444,"dy":0.0017,"dx":0.0017,"nx":28,"ny":28,"refTime":"2025-04-23T09:00:00:Z","depth":0,"parameterNumber":2,"parameterNumberName":"U-component_of_WINDS"},"data":[0,0,0,0,0,0,0,0,0,0,0,0,0,0,0,0,0,0,0,0,0,0,0,0,0,0,0,0,0,0,0,0,0,0,0,0,0,0,0,0,0,0,0,0,0,0,0,0,0,0,0,0,0,0,0,0,0,0,-2.1154,-2.1154,0,-2.1125,-2.1125,-2.1125,-2.1078,-2.1077,-2.1076,-2.1076,-2.1044,-2.1044,-2.1044,0,0,0,0,0,0,0,0,0,0,0,0,0,-2.1168,-2.1168,-2.1154,-2.1154,-2.1153,-2.1125,-2.1125,-2.1125,-2.1078,-2.1077,-2.1076,-2.1075,-2.1044,-2.1044,-2.1044,0,0,0,0,0,0,0,0,0,0,0,0,0,-2.1153,-2.1168,-2.1154,-2.1127,-2.1124,-2.1126,-2.1125,-2.1125,-2.1078,-2.1077,-2.1076,-2.1075,-2.1044,-2.1044,-2.1044,-2.1069,0,0,-2.1044,-2.1044,0,0,0,0,0,0,0,0,-2.1154,-2.1152,-2.1131,-2.1129,-2.1126,-2.1104,-2.1118,-2.1106,-2.1079,-2.1096,-2.1076,-2.1074,-2.1065,-2.1063,-2.106,-2.1067,-2.1066,-2.1044,-2.1043,-2.1043,-2.1043,0,0,0,0,0,0,0,-2.1155,-2.1153,-2.1143,-2.1131,-2.1128,-2.1116,-2.1112,-2.1116,-2.1088,-2.1094,-2.1091,-2.1088,-2.1063,-2.106,-2.1059,-2.1065,-2.1044,-2.1043,-2.1043,-2.1043,-2.1093,-2.1095,0,0,0,0,0,0,-2.116,-2.1154,-2.1143,-2.1142,-2.1137,-2.1117,-2.1113,-2.1112,-2.1087,-2.1083,-2.1089,-2.1086,-2.1061,-2.1059,-2.1058,-2.1086,-2.1043,-2.1043,-2.1043,-2.1092,-2.1094,-2.1095,0,0,0,0,0,0,-2.1161,-2.116,-2.1145,-2.1147,-2.1144,-2.1118,-2.1118,-2.1112,-2.111,-2.1084,-2.1078,-2.1092,-2.106,-2.1058,-2.1067,-2.1084,-2.1043,-2.1043,-2.109,-2.1093,-2.1094,-2.1142,0,0,0,0,0,0,-2.1161,-2.116,-2.1169,-2.1148,-2.1145,-2.1154,-2.1119,-2.1113,-2.111,-2.1106,-2.1085,-2.108,-2.1059,-2.1067,-2.1067,-2.1083,-2.1043,-2.1089,-2.1091,-2.1094,-2.1139,-2.1145,-2.1151,0,0,0,0,0,-2.1162,-2.1182,-2.117,-2.1168,-2.1155,-2.1155,-2.1153,-2.1129,-2.1112,-2.112,-2.1104,-2.1081,-2.1083,-2.1069,-2.1068,-2.1084,-2.1087,-2.1091,-2.1094,-2.1136,-2.1144,-2.1151,0,0,0,0,0,0,-2.1204,-2.1179,-2.1164,-2.1179,-2.117,-2.1147,-2.1157,-2.1139,-2.1133,-2.1129,-2.1099,-2.1095,-2.1108,-2.1097,-2.1082,-2.1108,-2.1082,-2.1085,-2.1114,-2.1122,-2.1128,-2.1129,-2.1043,0,0,0,0,0,-2.1216,-2.1219,-2.1196,-2.1211,-2.1208,-2.1184,-2.1183,-2.1166,-2.1154,-2.115,-2.1134,-2.1124,-2.1123,-2.1122,-2.1119,-2.1138,-2.1133,-2.1149,-2.1156,-2.1161,-2.1163,-2.1173,-2.118,-2.1105,-2.1105,-2.1105,0,0,-2.1238,-2.1225,-2.1228,-2.1219,-2.121,-2.1214,-2.118,-2.1185,-2.1187,-2.115,-2.1158,-2.1147,-2.1133,-2.1148,-2.1153,-2.1139,-2.1183,-2.1165,-2.1169,-2.1168,-2.1177,-2.1184,-2.1191,-2.1107,-2.1107,-2.1107,0,0,-2.1281,-2.1272,-2.1284,-2.1276,-2.1264,-2.1249,-2.1252,-2.1233,-2.1224,-2.1232,-2.1205,-2.1208,-2.1206,-2.1198,-2.1193,-2.1238,-2.1216,-2.1238,-2.1269,-2.128,-2.1286,-2.1291,-2.1306,-2.1313,-2.1241,-2.1241,-2.1241,0,-2.1311,-2.1315,-2.1292,-2.1299,-2.1296,-2.1266,-2.1278,-2.1271,-2.1258,-2.1257,-2.1242,-2.1241,-2.1229,-2.1242,-2.1253,-2.1251,-2.1254,-2.1239,-2.1287,-2.1292,-2.1296,-2.1311,-2.1317,-2.1244,-2.1243,-2.1243,-2.1243,0,-2.1352,-2.1356,-2.1367,-2.1357,-2.1356,-2.1365,-2.1344,-2.1346,-2.133,-2.1316,-2.1326,-2.1312,-2.1306,-2.1309,-2.1292,-2.132,-2.1312,-2.1293,-2.1265,-2.1307,-2.132,-2.1325,-2.1248,-2.1247,-2.1246,-2.1245,0,0,-2.1417,-2.1397,-2.1401,-2.1397,-2.1383,-2.1385,-2.1395,-2.1391,-2.1393,-2.1386,-2.1393,-2.1394,-2.1377,-2.1372,-2.1355,-2.1365,-2.1401,-2.1344,-2.1344,-2.1355,-2.1431,-2.1444,-2.1451,-2.1388,-2.1389,-2.139,-2.1432,0,-2.1455,-2.147,-2.1451,-2.147,-2.1473,-2.1447,-2.1455,-2.1447,-2.1436,-2.1437,-2.1425,-2.1426,-2.1403,-2.1401,-2.1409,-2.1395,-2.1416,-2.1392,-2.1393,-2.1393,-2.1395,-2.1458,-2.1471,-2.1511,-2.1437,-2.1438,-2.1438,0,-2.1501,-2.1499,-2.1518,-2.1505,-2.1506,-2.1514,-2.151,-2.1512,-2.1504,-2.1495,-2.1492,-2.1473,-2.1481,-2.1457,-2.1468,-2.1452,-2.1452,-2.1446,-2.1447,-2.1444,-2.1417,-2.1456,-2.1523,-2.1529,-2.1446,-2.1446,-2.1445,0,-2.1546,-2.1548,-2.156,-2.1557,-2.1543,-2.1549,-2.1543,-2.1534,-2.1533,-2.153,-2.153,-2.1528,-2.1526,-2.1525,-2.1506,-2.149,-2.152,-2.1494,-2.1512,-2.1513,-2.1517,-2.1517,-2.1584,-2.1521,-2.1521,-2.152,-2.152,0,-2.159,-2.1603,-2.158,-2.1587,-2.1601,-2.1581,-2.1595,-2.1586,-2.1579,-2.1584,-2.1562,-2.1567,-2.1543,-2.1546,-2.1532,-2.1543,-2.1543,-2.1536,-2.1531,-2.1537,-2.1537,-2.1534,-2.153,-2.1522,-2.1522,-2.1521,-2.1521,0,-2.1641,-2.1626,-2.1637,-2.1624,-2.1622,-2.1632,-2.1621,-2.1627,-2.1616,-2.1623,-2.1624,-2.1606,-2.1608,-2.1591,-2.159,-2.158,-2.1598,-2.159,-2.1601,-2.1598,-2.1617,-2.1615,-2.1683,-2.1691,-2.1624,-2.1625,-2.1625,0,-2.1669,-2.1678,-2.1667,-2.167,-2.1666,-2.167,-2.167,-2.1652,-2.1653,-2.1646,-2.1654,-2.1655,-2.1654,-2.166,-2.1647,-2.1646,-2.1637,-2.1661,-2.1636,-2.1642,-2.1636,-2.1635,-2.1636,-2.1665,-2.1666,-2.1667,-2.1668,0,-2.172,-2.1713,-2.1715,-2.1715,-2.1717,-2.1716,-2.1713,-2.1717,-2.1697,-2.17,-2.1703,-2.1703,-2.1704,-2.1705,-2.1703,-2.1697,-2.1679,-2.1676,-2.168,-2.1684,-2.169,-2.1687,-2.1613,-2.1674,-2.1673,-2.1673,-2.1672,-2.1672,-2.1759,-2.1767,-2.1761,-2.1764,-2.1762,-2.1761,-2.1766,-2.1757,-2.176,-2.176,-2.1749,-2.1755,-2.1749,-2.1744,-2.174,-2.1744,-2.1732,-2.1738,-2.174,-2.1741,-2.1744,-2.1692,-2.1744,-2.1744,-2.1743,-2.1743,-2.1743,0,-2.1808,-2.1804,-2.1808,-2.1806,-2.181,-2.1796,-2.1793,-2.1796,-2.1802,-2.1798,-2.18,-2.1804,-2.1807,-2.1795,-2.1796,-2.1802,-2.1794,-2.1802,-2.1801,-2.18,-2.1755,-2.1751,-2.1809,-2.1809,-2.1809,-2.1809,-2.1809,-2.1809,-2.1834,-2.1847,-2.184,-2.1852,-2.1847,-2.1854,-2.1853,-2.1853,-2.185,-2.1857,-2.1859,-2.1853,-2.1846,-2.1847,-2.1849,-2.1845,-2.1846,-2.1858,-2.1851,-2.1809,-2.1803,-2.1796,-2.1792,-2.1858,-2.1858,-2.1895,-2.1896,-2.1896]},{"header":{"parameterUnit":"m.s-1","parameterCategory":1,"la1":30.2991,"la2":30.254,"lo1":-89.0895,"lo2":-89.0444,"dy":0.0017,"dx":0.0017,"nx":28,"ny":28,"refTime":"2025-04-23T09:00:00:Z","depth":0,"parameterNumber":3,"parameterNumberName":"V-component_of_WINDS"},"data":[0,0,0,0,0,0,0,0,0,0,0,0,0,0,0,0,0,0,0,0,0,0,0,0,0,0,0,0,0,0,0,0,0,0,0,0,0,0,0,0,0,0,0,0,0,0,0,0,0,0,0,0,0,0,0,0,0,0,2.3581,2.3581,0,2.3622,2.3622,2.3623,2.3664,2.3665,2.3666,2.3666,2.3706,2.3706,2.3707,0,0,0,0,0,0,0,0,0,0,0,0,0,2.3539,2.3539,2.3581,2.3581,2.3582,2.3622,2.3622,2.3623,2.3664,2.3665,2.3666,2.3666,2.3705,2.3706,2.3707,0,0,0,0,0,0,0,0,0,0,0,0,0,2.3566,2.3539,2.3581,2.3607,2.361,2.3621,2.3622,2.3623,2.3664,2.3665,2.3666,2.3667,2.3705,2.3706,2.3707,2.3694,0,0,2.3709,2.3709,0,0,0,0,0,0,0,0,2.3564,2.3567,2.3603,2.3606,2.3609,2.3639,2.3622,2.3647,2.3664,2.3644,2.3666,2.3667,2.3682,2.3685,2.3691,2.3696,2.3698,2.3709,2.371,2.371,2.371,0,0,0,0,0,0,0,2.3562,2.3566,2.3597,2.3603,2.3607,2.3617,2.3622,2.3627,2.3658,2.3645,2.3649,2.3653,2.3684,2.369,2.3692,2.3698,2.3709,2.371,2.371,2.3711,2.3698,2.3697,0,0,0,0,0,0,2.3557,2.3564,2.3596,2.3598,2.3588,2.3617,2.3623,2.3628,2.3658,2.3663,2.3652,2.3655,2.3688,2.3691,2.3694,2.3683,2.371,2.3711,2.3711,2.3699,2.3698,2.3697,0,0,0,0,0,0,2.3556,2.3559,2.3594,2.3582,2.3587,2.3617,2.3623,2.3629,2.3635,2.3663,2.3668,2.3652,2.3689,2.3693,2.3695,2.3685,2.3711,2.3712,2.37,2.3699,2.3698,2.366,0,0,0,0,0,0,2.3554,2.3558,2.3554,2.3582,2.3588,2.3594,2.3622,2.3629,2.3636,2.364,2.3665,2.3669,2.369,2.3693,2.3695,2.3687,2.3712,2.3701,2.3699,2.3698,2.3663,2.3658,2.3654,0,0,0,0,0,2.3552,2.354,2.3553,2.3557,2.3583,2.3593,2.3597,2.3621,2.3635,2.3631,2.365,2.3669,2.3686,2.3693,2.3696,2.3687,2.3702,2.37,2.3698,2.3664,2.3659,2.3654,0,0,0,0,0,0,2.3509,2.3544,2.3559,2.3556,2.3571,2.36,2.3596,2.3614,2.3626,2.3629,2.3658,2.3663,2.3662,2.3675,2.3682,2.3678,2.3696,2.3695,2.367,2.3665,2.3661,2.3658,2.3713,0,0,0,0,0,2.3499,2.3505,2.3536,2.353,2.3537,2.3565,2.3571,2.3589,2.3606,2.3612,2.3631,2.3646,2.3656,2.3661,2.367,2.3665,2.3672,2.366,2.3656,2.3652,2.3651,2.3651,2.3647,2.3691,2.3691,2.3691,0,0,2.3479,2.3499,2.3501,2.3522,2.3536,2.3542,2.357,2.3575,2.358,2.3613,2.3617,2.3631,2.365,2.3649,2.3649,2.3659,2.364,2.365,2.3647,2.3648,2.3649,2.3645,2.3641,2.369,2.369,2.3691,0,0,2.3445,2.346,2.3458,2.3473,2.3495,2.3514,2.3513,2.354,2.3552,2.3556,2.3582,2.3588,2.3602,2.3616,2.3625,2.3599,2.3618,2.3601,2.358,2.3579,2.3576,2.3573,2.3566,2.3563,2.36,2.36,2.36,0,2.3416,2.3427,2.3455,2.3459,2.3468,2.35,2.3499,2.3511,2.3535,2.354,2.3551,2.3572,2.3587,2.3591,2.3585,2.359,2.3592,2.3599,2.3574,2.3572,2.3569,2.3563,2.356,2.3598,2.3598,2.3598,2.3598,0,2.3392,2.3399,2.3395,2.3419,2.3428,2.3429,2.3458,2.3463,2.3481,2.3499,2.3504,2.3524,2.3539,2.3541,2.3557,2.3548,2.3554,2.3569,2.3588,2.3563,2.3557,2.3555,2.3595,2.3596,2.3596,2.3597,0,0,2.3331,2.3372,2.3371,2.3383,2.3411,2.3417,2.342,2.3437,2.3442,2.3458,2.3462,2.3475,2.349,2.35,2.3519,2.3518,2.35,2.3534,2.3535,2.3529,2.3493,2.3482,2.3478,2.3512,2.3512,2.3511,2.3492,0,2.3303,2.3312,2.3339,2.334,2.3348,2.3379,2.3382,2.34,2.3417,2.3427,2.3446,2.3455,2.3474,2.3481,2.3482,2.3502,2.3493,2.3503,2.3517,2.3517,2.3513,2.3475,2.3463,2.3444,2.3489,2.3489,2.3489,0,2.3272,2.3288,2.329,2.332,2.3325,2.3327,2.3346,2.3354,2.3375,2.3388,2.3401,2.3422,2.3428,2.3446,2.3455,2.3462,2.3469,2.348,2.348,2.3483,2.3502,2.3478,2.3438,2.3435,2.3485,2.3485,2.3486,0,2.3229,2.3251,2.3256,2.3266,2.33,2.3302,2.3316,2.3338,2.3348,2.3364,2.337,2.3386,2.3395,2.3407,2.3432,2.3443,2.344,2.3459,2.3452,2.3451,2.345,2.345,2.3411,2.3452,2.3452,2.3452,2.3453,0,2.3196,2.3197,2.3238,2.3241,2.3244,2.3274,2.3275,2.3293,2.3313,2.332,2.3347,2.3354,2.3386,2.3396,2.3416,2.3422,2.3425,2.3437,2.3442,2.3435,2.3434,2.3441,2.3443,2.3452,2.3452,2.3452,2.3452,0,2.3149,2.3177,2.3185,2.3218,2.3227,2.3227,2.3255,2.326,2.328,2.3289,2.3293,2.3324,2.3338,2.3364,2.3384,2.3398,2.34,2.3409,2.3394,2.3397,2.3389,2.339,2.3354,2.3352,2.3393,2.3393,2.3392,0,2.3127,2.3129,2.3163,2.3171,2.3185,2.3196,2.3207,2.3237,2.3246,2.3272,2.3274,2.329,2.3305,2.3326,2.335,2.3366,2.3376,2.3363,2.3379,2.3373,2.3378,2.3379,2.338,2.3359,2.3359,2.3358,2.3358,0,2.3085,2.31,2.3114,2.3134,2.3146,2.3162,2.318,2.3184,2.3219,2.3228,2.3244,2.3255,2.3278,2.3294,2.3315,2.3329,2.335,2.3353,2.3352,2.3345,2.3337,2.3344,2.3385,2.3353,2.3354,2.3354,2.3354,2.3355,2.3051,2.3056,2.3081,2.3097,2.3114,2.3131,2.3138,2.3159,2.3173,2.3195,2.3212,2.3226,2.3249,2.3279,2.3293,2.3305,2.3314,2.3313,2.3313,2.3312,2.331,2.3335,2.3308,2.3309,2.3309,2.3309,2.3309,0,2.3013,2.3031,2.3045,2.3071,2.3084,2.3103,2.3124,2.3134,2.3147,2.3167,2.3182,2.32,2.3217,2.3243,2.3262,2.3267,2.3277,2.3271,2.3271,2.3275,2.33,2.3299,2.3263,2.3263,2.3263,2.3263,2.3263,2.3263,2.2994,2.3003,2.3021,2.3039,2.3057,2.3073,2.3084,2.31,2.3117,2.3137,2.3151,2.3169,2.3192,2.3213,2.323,2.3237,2.3243,2.3235,2.3245,2.3268,2.3273,2.3277,2.3277,2.3236,2.3236,2.3219,2.3219,2.3219]}]]